Back to catalog

TITAN 3C TRANSTAGE R/B

AliveMEO
NORAD 5589·ROCKET BODY·🇺🇸 United States

Launched Nov 3, 1971 from Cape Canaveral Space Force Station

Loading…

Next Passes (next 24 hours)

TLE

FreshSource: Space-Track

Epoch: Sep 14, 2026, 12:28 UTC

1 05589U 71095C   26257.51949671 -.00000196  00000-0  00000-0 0  9990
2 05589   3.0484 272.2764 0165703 189.4310 276.4992  0.97188871120298

Track TITAN 3C TRANSTAGE R/B in real time with AllMySat

Download on the App Store